This is the latest recevied weather packets stored in our database for station/object JE7UPL-13. If no packets are shown the sender has not sent any weather packets the latest 10 day(s).
| Time | Temp. | Humidity | Pressure | Rain* | Wind** | Luminosity | Snow |
|---|---|---|---|---|---|---|---|
| 1788214506 | 21.11° C | 89% | 1013.1 hPa | 0 mm | - | - | - |
| 1788212706 | 21.11° C | 91% | 1013.4 hPa | 0 mm | - | - | - |
| 1788211807 | 20.56° C | 91% | 1013.4 hPa | 0 mm | - | - | - |
| 1788210906 | 20.56° C | 91% | 1013.1 hPa | 0 mm | - | - | - |
| 1788210007 | 20.56° C | 90% | 1012.6 hPa | 0 mm | - | - | - |
| 1788207307 | 20.56° C | 89% | 1012.3 hPa | 0 mm | - | - | - |
| 1788204607 | 21.11° C | 87% | 1012.6 hPa | 0 mm | - | - | - |
| 1788203707 | 21.11° C | 87% | 1012.5 hPa | 0 mm | - | - | - |
| 1788202807 | 20.56° C | 88% | 1012.6 hPa | 0 mm | - | - | - |
| 1788201907 | 20.56° C | 89% | 1012.4 hPa | 0 mm | - | - | - |
| 1788201007 | 20.56° C | 89% | 1012.3 hPa | 0 mm | - | - | - |
| 1788200106 | 20.56° C | 89% | 1012.7 hPa | 0 mm | - | - | - |
| 1788199207 | 20.56° C | 89% | 1012.8 hPa | 0 mm | - | - | - |
| 1788197408 | 20.56° C | 86% | 1012.4 hPa | 0 mm | - | - | - |
| 1788196506 | 21.11° C | 84% | 1012.2 hPa | 0 mm | - | - | - |
| 1788195607 | 21.11° C | 86% | 1012.4 hPa | 0 mm | - | - | - |
| 1788194707 | 21.11° C | 84% | 1012.1 hPa | 0 mm | - | - | - |
| 1788193807 | 21.11° C | 83% | 1012.2 hPa | 0 mm | - | - | - |
| 1788192907 | 21.67° C | 82% | 1012.1 hPa | 0 mm | - | - | - |
| 1788192007 | 21.11° C | 83% | 1012.1 hPa | 0 mm | - | - | - |
| 1788191107 | 21.67° C | 82% | 1012 hPa | 0 mm | - | - | - |
| 1788190207 | 21.67° C | 82% | 1012 hPa | 0 mm | - | - | - |
| 1788189306 | 21.67° C | 83% | 1011.8 hPa | 0 mm | - | - | - |
| 1788188412 | 21.11° C | 84% | 1011.9 hPa | 0 mm | - | - | - |
| 1788187506 | 21.11° C | 84% | 1012.1 hPa | 0 mm | - | - | - |
* Rain latest hour (hover to see other rain measurements)
** Current wind speed in m/s (hover to see current wind gust speed)